sat.trackr.live / text

‹ back to catalog

STARLINK-31012

NORAD 58531 · 2023-192A

PAYLOAD ACTIVE UNKNOWN

§ Identity

Operator
Country
US
Launch date
2023-12-08
Launch site
AFWTR
Launch vehicle
Mass (kg)
RCS (m²)

Purposes: comms

External: N2YO · Heavens-Above · Gunter

§ Orbital elements

Epoch: 2026-09-20T22:25:29.513568Z

Period
93.85 min
Inclination
53.1586°
Eccentricity
0.0001582
Mean motion
15.34391305 rev/d
Perigee alt
461.6 km
Apogee alt
463.8 km
Semi-major
6,840.9 km
B*
-2.4552e-6
RAAN
233.3401°
Arg perigee
89.9827°
Mean anomaly
270.1357°
Rev number
15,591

§ Raw data

STARLINK-310121 58531U 23192A   26263.93436937 -.00000459  00000+0 -24552-5 0  99942 58531  53.1586 233.3401 0001582  89.9827 270.1357 15.34391305155917

JSON: /api/v1/satellites/58531 · /tle

For live sub-satellite position, see the globe view (requires WebGL).

§ Visibility from observer

Set your observer location to see the next 7 days of passes ≥ 10°. The values pass through the URL so the page stays shareable.

No JS? Fill the form by hand. The geolocation button needs JavaScript.